User: anonymous
Location: Lawrence Hall of Science
(37.8785°N, 122.2415°W)
Time: 23:15:41
(UTC-07:00)
Language:

Cosmos 2098 Rocket - Orbit

View from above orbital plane
View from above orbital plane
View from above satellite
View from above satellite

Ground track
Ground track

The orbit data is extracted from the following two-line orbital elements,

1 20775U 90078B   14208.48739535  .00007919  00000-0  43367-3 0  4621
2 20775 082.9345 187.1266 0638516 331.3532 139.0746 14.18309985198325
Epoch (UTC): 27 July 2014 11:41:50
Eccentricity: 0.0638516
inclination: 82.9345°
perigee height: 371 km
apogee height: 1291 km
right ascension of ascending node: 187.1266°
argument of perigee: 331.3532°
revolutions per day: 14.18309985
mean anomaly at epoch: 139.0746°
orbit number at epoch: 19832

The dashed part of the orbit path shows where the satellite is in the earth's shadow,  

DLR